Location: Bury Saint Edmunds
(52.2500°N, 0.7167°E)
Time: 23:50:58
(UTC+00:00)

Daily predictions for brighter satellites

Satellite Brightness Start Highest point End
(mag) Time Altitude Azimuth Time Altitude Azimuth Time Altitude Azimuth
Cosmos 2173 Rocket 4.5 16:41:52 10° SSE 16:47:33 39° E 16:53:12 10° NNE
Cosmos 1733 Rocket 3.3 16:45:24 10° SSE 16:49:33 48° E 16:53:43 10° NNE
Cosmos 2082 Rocket 4.1 16:48:14 10° NNW 16:50:57 13° NNE 16:53:38 10° NE
Cosmos 2227 Rocket 3.3 16:47:21 10° WSW 16:52:43 42° NW 16:58:06 10° NNE
USA 281 4.2 16:48:15 10° E 16:53:26 26° NE 16:58:37 10° NNW
Cosmos 1452 Rocket 3.7 16:48:37 10° NNW 16:53:52 82° WSW 16:59:07 10° SSE
Cosmos 1992 Rocket 4.4 16:49:19 10° NNW 16:54:13 39° NE 16:59:05 10° SE
CZ-4C R/B 3.2 16:51:16 10° SSE 16:54:22 19° ESE 16:57:59 10° ENE
Thor Agena Rocket 3.7 16:49:14 10° SSE 16:54:29 90° ESE 16:59:49 10° NNW
Cosmos 1153 Rocket 4.5 16:48:48 10° S 16:54:53 66° E 17:00:58 10° NNE
Cosmos 2242 Rocket 3.7 16:51:52 10° N 16:56:23 88° W 17:00:53 10° S
Cosmos 1441 Rocket 4.5 16:55:10 10° NNE 16:57:18 16° ENE 16:59:26 10° ESE
Meteor 1-11 4.3 16:53:46 10° N 16:59:32 60° ENE 17:05:09 10° SSE
AQUARIUS 4.5 16:56:47 10° SE 17:00:58 43° ENE 17:05:09 10° N
Cosmos 1844 4.3 16:56:17 10° S 17:01:34 38° ESE 17:06:52 10° NE
Cosmos 1048 Rocket 4.0 16:57:15 10° SSW 17:02:21 86° ESE 17:07:30 10° NNE
Cosmos 1340 Rocket 3.3 17:08:39 10° SSE 17:12:13 37° E 17:15:48 10° NNE
Cosmos 1674 Rocket 3.5 17:08:14 10° N 17:12:38 65° ENE 17:16:58 10° SSE
Cosmos 44 3.8 17:08:24 10° WSW 17:12:54 54° NW 17:17:43 10° NE
Cosmos 2219 3.8 17:11:40 10° SW 17:17:11 59° NW 17:22:48 10° NNE
PSLV R/B 4.4 17:14:10 10° ESE 17:17:32 25° ENE 17:20:53 10° N
Cosmos 2082 4.0 17:12:17 10° SW 17:17:52 69° NW 17:23:30 10° NNE
Cosmos 2016 Rocket 4.4 17:12:41 10° SSE 17:18:25 40° E 17:24:14 10° NNE
CZ-2D R/B 2.6 17:15:32 10° SSE 17:18:42 79° ENE 17:21:54 10° NNW
Cosmos 614 Rocket 4.0 17:19:03 10° S 17:24:10 62° ESE 17:29:19 10° NNE
Resurs 1-3 4.4 17:20:48 10° ESE 17:24:28 28° ENE 17:28:10 10° N
Helios 1A Rocket 4.0 17:23:44 16° ENE 17:24:37 17° E 17:26:55 10° SE
IRS-P3 4.1 17:21:48 10° SSE 17:27:07 76° ENE 17:32:28 10° NNW
SJ-6F 4.2 17:26:57 10° SSE 17:30:51 74° ENE 17:34:47 10° N
Cosmos 1025 Rocket 2.9 17:29:14 10° N 17:33:37 76° E 17:37:56 10° SSE
MOS 1 Rocket 3.1 17:29:56 10° SSE 17:34:06 58° ENE 17:38:22 10° N
Cosmos 2061 Rocket 4.5 17:30:56 10° SSE 17:36:39 37° E 17:42:19 10° NNE
Cosmos 921 Rocket 4.0 17:33:42 10° SSE 17:37:18 27° E 17:39:40 17° NE
YAOGAN 1 3.0 17:33:36 10° SE 17:37:32 38° ENE 17:41:30 10° N
Cosmos 2263 Rocket 3.5 17:34:21 10° WSW 17:39:26 35° NW 17:44:33 10° NNE
Cosmos 2100 Rocket 4.0 17:35:00 10° S 17:41:13 88° E 17:47:26 10° N
IRAS Rocket 4.2 17:36:41 10° SE 17:42:10 61° ENE 17:47:40 10° NNW
SPOT 1/Viking Rocket 3.5 17:38:17 10° SSE 17:43:21 60° ENE 17:48:28 10° N
ATLAS CENTAUR R/B 2.7 17:43:00 10° SSE 17:44:48 16° SE 17:44:48 16° SE
CZ-4 R/B 4.2 17:41:28 10° SSE 17:45:25 66° ENE 17:49:23 10° N
SL-19 R/B 4.2 17:40:51 10° SE 17:46:00 54° ENE 17:51:04 10° N
Cosmos 1844 Rocket 2.6 17:40:48 10° SSW 17:46:22 82° ESE 17:51:59 10° NNE
ARIANE 5 R/B 3.2 17:41:37 10° S 17:46:31 57° WSW 17:51:27 10° NNW
ARIANE 6 FM1 Upper Stage 2.8 17:46:24 10° SSW 17:50:17 51° SE 17:52:12 26° ENE
Cosmos 1607 4.0 17:44:10 10° SW 17:50:19 77° NW 17:56:01 12° NE
Cosmos 2297 Rocket 4.4 17:47:41 10° WNW 17:51:07 16° NNW 17:54:33 10° NNE
Cosmos 1833 Rocket 2.9 17:47:17 10° NNW 17:52:47 50° NE 17:57:24 14° ESE
UNK 4.5 17:49:46 10° N 17:54:16 54° WNW 17:58:46 10° SW
Cosmos 1782 Rocket 3.9 17:53:27 10° SSE 17:57:36 40° E 18:01:47 10° NNE
CZ-2D R/B 3.3 17:53:59 10° SSE 17:58:01 79° ENE 18:02:11 10° NNW
Geosat 4.1 17:54:19 10° SSE 17:59:19 81° WSW 18:04:22 10° NNW
SKYMED 2 3.6 17:56:32 10° NNE 18:00:50 56° E 18:05:07 10° S
Cosmos 1459 Rocket 4.3 17:57:19 10° SSW 18:03:33 73° WNW 18:09:55 10° N
Cosmos 1864 Rocket 4.4 17:57:40 10° S 18:03:49 89° E 18:10:02 10° N
Cosmos 1867 3.6 17:58:33 10° SSW 18:03:55 66° SE 18:07:26 22° NE
NOSS 3-4 (A) 4.0 17:57:50 10° NW 18:04:26 73° SW 18:12:16 10° SSE
NOSS 3-4 (C) 4.0 17:57:54 10° NW 18:04:31 73° SW 18:12:20 10° SSE
COSMO-SKYMED 1 2.7 18:02:06 15° NNE 18:05:15 44° E 18:09:12 10° S
Cosmos 1606 3.0 18:04:08 10° SSW 18:06:45 43° WNW 18:09:25 10° N
SL-16 R/B 4.0 18:02:59 10° N 18:08:40 37° WNW 18:14:19 10° WSW
Cosmos 2344 4.2 18:02:32 10° NW 18:09:26 41° NNE 18:14:01 24° ENE
ATLAS 5 CENTAUR R/B 2.0 18:06:06 10° NW 18:09:55 43° NE 18:11:08 35° ENE
NOSS 3-3 (A) 4.1 18:06:59 10° WSW 18:12:24 68° NW 18:17:20 18° NE
Cosmos 540 Rocket 4.3 18:07:57 10° N 18:12:29 30° NE 18:12:58 29° ENE
Cosmos 1725 Rocket 4.0 18:06:42 10° S 18:12:58 87° W 18:19:19 10° N
Iridium 4 Rocket 4.4 18:07:46 10° SSW 18:13:05 51° W 18:18:01 10° N
Cosmos 1908 Rocket 3.6 18:09:00 10° SSW 18:13:24 80° WNW 18:17:52 10° N
Tiangong 0.5 18:13:28 10° SSW 18:14:53 12° S 18:15:32 12° S
Cosmos 1975 Rocket 3.0 18:11:45 10° N 18:16:02 60° ENE 18:20:18 10° SSE
SL-4 R/B 2.0 18:13:38 10° W 18:17:03 57° SSW 18:17:58 41° SE
Cosmos 1300 Rocket 3.4 18:14:30 10° S 18:18:53 70° E 18:23:16 10° NNE
Cosmos 1802 Rocket 4.3 18:13:32 10° SSW 18:19:56 73° WNW 18:26:24 10° N
YAOGAN 3 4.5 18:19:45 29° SE 18:21:44 58° ENE 18:25:54 10° N
Cosmos 2233 Rocket 3.9 18:18:27 10° S 18:24:43 82° E 18:31:05 10° NNE
Spot 4 Rocket 4.3 18:21:12 10° S 18:26:17 71° WSW 18:31:24 10° NNW
ATLAS 2AS CENTAUR R/B 3.8 18:22:34 10° WNW 18:28:38 32° N 18:31:46 22° NE
Resurs 01 Rocket 1.7 18:28:31 49° ENE 18:28:39 50° ENE 18:32:56 10° N
BREEZE-M DEB (TANK) 3.6 18:27:05 10° SSW 18:29:30 38° SE 18:29:30 38° SE
Cosmos 1441 Rocket 4.0 18:28:39 10° NNW 18:31:51 43° W 18:35:02 10° S
Tsikada Rocket 4.3 18:26:43 10° NNW 18:33:07 72° W 18:39:29 10° S
NOSS 3-3 (C) 4.2 18:28:51 10° WSW 18:34:17 60° NW 18:38:23 23° NE
Cosmos 2082 Rocket 3.0 18:31:53 10° NNW 18:36:54 32° NE 18:36:54 32° NE
USA 281 3.1 18:31:57 18° SE 18:37:07 76° ENE 18:43:43 10° NNW
DNEPR-1 R/B 3.7 18:34:55 10° NW 18:39:17 79° SW 18:40:51 42° SSE
COSMOS 2406 4.5 18:35:29 10° NNW 18:39:49 24° NNE 18:39:49 24° NNE
CARTOSAT-1 3.3 18:40:02 61° SE 18:40:42 78° ENE 18:44:55 10° NNW
CZ-4C R/B 1.9 18:37:11 10° SW 18:41:39 80° NW 18:43:42 39° NE
NOAA 6 4.2 18:40:30 10° S 18:45:39 74° WSW 18:50:50 10° NNW
Cosmos 1269 Rocket 3.9 18:43:19 10° S 18:48:29 60° ESE 18:48:29 60° ESE
RESURS DK-1 4.1 18:53:13 10° NNW 18:54:58 22° N 18:54:58 22° N
Helios 1A Rocket 3.6 18:57:27 41° WNW 18:57:32 41° WNW 19:00:44 10° SW
YAOGAN 1 4.5 19:09:47 10° SSW 19:13:29 28° W 19:17:12 10° NW
Cosmos 921 Rocket 4.1 19:11:07 10° SW 19:15:13 42° WNW 19:16:18 35° NNW
Cosmos 1513 Rocket 4.4 19:12:00 10° S 19:18:19 87° E 19:24:45 10° N
ATLAS CENTAUR R/B 3.5 19:16:30 10° SW 19:17:25 17° SW 19:17:25 17° SW
ARIANE 6 FM1 Upper Stage 4.4 19:25:46 10° W 19:28:16 29° WNW 19:28:16 29° WNW
Cosmos 1763 Rocket 3.8 19:24:19 10° NNW 19:28:55 64° WNW 19:28:55 64° WNW
Cosmos 1844 Rocket 4.5 19:26:14 10° W 19:30:54 27° NW 19:34:08 16° N
Cosmos 1833 Rocket 4.0 19:31:26 10° NW 19:36:35 37° WSW 19:39:09 24° SSW
Nadezhda 4 Rocket 4.0 19:31:10 10° NNW 19:37:32 81° W 19:37:44 80° SW
Cosmos 1140 Rocket 4.5 19:33:35 10° SW 19:36:56 40° SW 19:36:56 40° SW
SL-12 R/B(2) 4.2 19:37:37 10° SSW 19:44:56 64° SSE 19:44:56 64° SSE
BREEZE-M DEB (TANK) 4.5 19:19:38 10° WSW 19:49:17 72° S 19:50:26 66° SE
ATLAS 5 CENTAUR R/B 3.4 19:48:24 10° WNW 19:50:42 29° WNW 19:50:42 29° WNW
Resurs 01 Rocket 3.9 20:05:57 22° WNW 20:05:57 22° WNW 20:08:50 10° NW
ATLAS 2AS CENTAUR R/B 3.7 20:14:32 10° NW 20:19:10 37° NNW 20:19:10 37° NNW
Cosmos 2082 Rocket 3.7 20:15:50 10° NW 20:18:44 31° NW 20:18:44 31° NW
Cosmos 2344 3.8 20:17:09 10° NW 20:24:01 74° NNW 20:24:01 74° NNW
CZ-4C R/B 4.0 20:26:13 10° W 20:28:40 25° NW 20:28:40 25° NW
